CAL5833 RCTP-VHHH

Flight info

Callsign CAL5833
Flight time N/A
Altitude 40000
Route CHALI1A CHALI T3 MKG A1 ELATO V522 ABBEY
Aircraft B744/H-SDE3FGHIM1M2RWXY/LB1

Departure

Time 2026-05-05 09:56
Airport Taiwan Taoyuan International Airport (RCTP)

Arrival

Time N/A
Airport Hong Kong International Airport (VHHH)
Time Latitude Longitude Altitude Speed Heading
2026-05-05 09:41 25.09142 121.24468 119 ft 0 kts 139°
2026-05-05 09:43 25.09146 121.24464 119 ft 2 kts 139°
2026-05-05 09:43 25.09158 121.24454 119 ft 2 kts 139°
2026-05-05 09:43 25.09169 121.24443 119 ft 2 kts 140°
2026-05-05 09:44 25.09181 121.24432 119 ft 2 kts 144°
2026-05-05 09:44 25.09194 121.24425 119 ft 2 kts 159°
2026-05-05 09:44 25.09208 121.24420 119 ft 2 kts 171°
2026-05-05 09:44 25.09223 121.24419 119 ft 2 kts 182°
2026-05-05 09:45 25.09238 121.24421 119 ft 2 kts 195°
2026-05-05 09:45 25.09252 121.24427 119 ft 2 kts 207°
2026-05-05 09:45 25.09265 121.24435 119 ft 2 kts 219°
2026-05-05 09:45 25.09274 121.24445 119 ft 0 kts 229°
2026-05-05 09:46 25.09276 121.24448 119 ft 0 kts 230°
2026-05-05 09:49 25.09255 121.24420 119 ft 10 kts 229°
2026-05-05 09:49 25.09180 121.24324 119 ft 23 kts 229°
2026-05-05 09:49 25.09051 121.24163 119 ft 29 kts 228°
2026-05-05 09:50 25.08923 121.24000 119 ft 27 kts 230°
2026-05-05 09:50 25.08791 121.23833 119 ft 31 kts 229°
2026-05-05 09:50 25.08639 121.23638 119 ft 35 kts 230°
2026-05-05 09:50 25.08514 121.23480 119 ft 35 kts 228°
2026-05-05 09:51 25.08381 121.23310 119 ft 32 kts 229°
2026-05-05 09:51 25.08168 121.23040 119 ft 28 kts 230°
2026-05-05 09:51 25.08033 121.22867 119 ft 31 kts 229°
2026-05-05 09:51 25.07880 121.22673 119 ft 36 kts 229°
2026-05-05 09:52 25.07699 121.22442 119 ft 42 kts 229°
2026-05-05 09:52 25.07481 121.22165 119 ft 49 kts 229°
2026-05-05 09:52 25.07336 121.21989 119 ft 16 kts 207°
2026-05-05 09:52 25.07248 121.22028 119 ft 17 kts 138°
2026-05-05 09:53 25.07118 121.22152 119 ft 34 kts 139°
2026-05-05 09:53 25.06885 121.22376 119 ft 50 kts 139°
2026-05-05 09:53 25.06689 121.22562 119 ft 19 kts 145°
2026-05-05 09:53 25.06584 121.22517 119 ft 20 kts 229°
2026-05-05 09:54 25.06469 121.22371 119 ft 30 kts 228°
2026-05-05 09:54 25.06329 121.22253 119 ft 20 kts 187°
2026-05-05 09:54 25.06202 121.22253 119 ft 15 kts 145°
2026-05-05 09:54 25.06131 121.22326 119 ft 12 kts 126°
2026-05-05 09:55 25.06128 121.22402 119 ft 9 kts 58°
2026-05-05 09:55 25.06150 121.22432 119 ft 0 kts 48°
2026-05-05 09:55 25.06216 121.22517 119 ft 44 kts 50°
2026-05-05 09:55 25.06590 121.22993 119 ft 117 kts 49°
2026-05-05 09:56 25.07272 121.23861 129 ft 175 kts 50°
2026-05-05 09:56 25.08121 121.24900 594 ft 189 kts 49°
2026-05-05 09:56 25.09021 121.26035 1196 ft 200 kts 52°
2026-05-05 09:56 25.09874 121.27175 2034 ft 194 kts 51°
2026-05-05 09:57 25.10761 121.28282 2721 ft 196 kts 43°
2026-05-05 09:57 25.12001 121.28997 3209 ft 211 kts 14°
2026-05-05 09:57 25.13545 121.29043 3630 ft 232 kts 348°
2026-05-05 09:57 25.15017 121.28337 4306 ft 237 kts 322°
2026-05-05 09:58 25.16167 121.27040 5098 ft 237 kts 307°
2026-05-05 09:58 25.17209 121.25640 5897 ft 238 kts 309°
2026-05-05 09:58 25.18362 121.24338 6617 ft 243 kts 315°
2026-05-05 09:58 25.19622 121.23051 7296 ft 248 kts 313°
2026-05-05 09:59 25.20886 121.21721 7925 ft 256 kts 313°
2026-05-05 09:59 25.22179 121.20355 8499 ft 265 kts 313°
2026-05-05 09:59 25.23550 121.18898 9007 ft 277 kts 312°
2026-05-05 09:59 25.24965 121.17390 9530 ft 288 kts 312°
2026-05-05 10:00 25.26408 121.15861 10260 ft 290 kts 311°
2026-05-05 10:00 25.27691 121.14180 10958 ft 287 kts 297°
2026-05-05 10:00 25.28414 121.12141 11446 ft 291 kts 278°
2026-05-05 10:00 25.28475 121.09881 11812 ft 301 kts 260°
2026-05-05 10:01 25.27804 121.07649 12355 ft 308 kts 242°
2026-05-05 10:01 25.26489 121.05795 13105 ft 311 kts 225°
2026-05-05 10:01 25.24701 121.04446 13748 ft 318 kts 213°
2026-05-05 10:01 25.22741 121.03298 14444 ft 318 kts 214°
2026-05-05 10:02 25.20847 121.02078 15103 ft 317 kts 215°
2026-05-05 10:02 25.19102 121.00634 15663 ft 315 kts 227°
2026-05-05 10:02 25.17565 120.98891 16277 ft 315 kts 228°
2026-05-05 10:02 25.16033 120.97204 16870 ft 315 kts 227°
2026-05-05 10:03 25.14478 120.95472 17443 ft 316 kts 228°
2026-05-05 10:03 25.12938 120.93740 17983 ft 317 kts 228°
2026-05-05 10:03 25.11360 120.92059 18487 ft 319 kts 226°
2026-05-05 10:03 25.09746 120.90347 19002 ft 320 kts 227°
2026-05-05 10:04 25.08151 120.88647 19520 ft 321 kts 227°
2026-05-05 10:04 25.06532 120.86925 20022 ft 322 kts 227°
2026-05-05 10:04 25.04897 120.85168 20538 ft 335 kts 227°
2026-05-05 10:04 25.03232 120.83391 21441 ft 337 kts 227°
2026-05-05 10:05 25.01557 120.81601 22358 ft 338 kts 227°
2026-05-05 10:05 24.99865 120.79790 23207 ft 341 kts 227°
2026-05-05 10:05 24.98174 120.77974 23999 ft 344 kts 228°
2026-05-05 10:05 24.96458 120.76139 24770 ft 347 kts 227°
2026-05-05 10:06 24.94737 120.74289 25468 ft 351 kts 228°
2026-05-05 10:06 24.92988 120.72416 26200 ft 354 kts 228°
2026-05-05 10:06 24.91211 120.70508 26957 ft 355 kts 228°
2026-05-05 10:06 24.89446 120.68608 27770 ft 355 kts 228°
2026-05-05 10:07 24.87679 120.66714 28497 ft 356 kts 228°
2026-05-05 10:07 24.85917 120.64827 29114 ft 360 kts 228°
2026-05-05 10:07 24.84116 120.62901 29677 ft 364 kts 228°
2026-05-05 10:07 24.82274 120.60957 30189 ft 369 kts 228°
2026-05-05 10:08 24.80425 120.58990 30720 ft 372 kts 229°
2026-05-05 10:08 24.78554 120.56997 31197 ft 377 kts 229°
2026-05-05 10:08 24.76668 120.54956 31692 ft 380 kts 229°
2026-05-05 10:08 24.74782 120.52886 32155 ft 383 kts 229°
2026-05-05 10:09 24.72918 120.50793 32620 ft 385 kts 231°
2026-05-05 10:09 24.71168 120.48590 32984 ft 389 kts 230°
2026-05-05 10:09 24.69017 120.46709 33332 ft 402 kts 217°
2026-05-05 10:09 24.66525 120.45246 33743 ft 407 kts 214°
2026-05-05 10:10 24.64044 120.43676 34147 ft 407 kts 217°
2026-05-05 10:10 24.61648 120.42014 34522 ft 409 kts 218°
2026-05-05 10:10 24.59244 120.40320 34910 ft 410 kts 218°
2026-05-05 10:10 24.56846 120.38573 35244 ft 412 kts 220°
2026-05-05 10:11 24.54427 120.36800 35553 ft 415 kts 219°
2026-05-05 10:11 24.52004 120.35026 35802 ft 418 kts 220°
2026-05-05 10:11 24.49605 120.33222 36098 ft 420 kts 219°
2026-05-05 10:11 24.47195 120.31377 36401 ft 422 kts 220°
2026-05-05 10:12 24.44785 120.29527 36641 ft 425 kts 221°
2026-05-05 10:12 24.42353 120.27666 36915 ft 427 kts 220°
2026-05-05 10:12 24.39906 120.25769 37222 ft 427 kts 220°
2026-05-05 10:12 24.37461 120.23895 37465 ft 430 kts 220°
2026-05-05 10:13 24.35017 120.22016 37730 ft 430 kts 220°
2026-05-05 10:13 24.32571 120.20108 37892 ft 433 kts 220°
2026-05-05 10:13 24.30079 120.18191 38104 ft 433 kts 220°
2026-05-05 10:13 24.27632 120.16290 38239 ft 436 kts 220°
2026-05-05 10:14 24.25096 120.14346 38462 ft 436 kts 220°
2026-05-05 10:14 24.22590 120.12428 38666 ft 436 kts 221°
2026-05-05 10:14 24.17625 120.08526 38908 ft 438 kts 222°
2026-05-05 10:15 24.15183 120.06515 39046 ft 438 kts 222°
2026-05-05 10:15 24.12664 120.04569 39147 ft 442 kts 219°
2026-05-05 10:15 24.10093 120.02659 39273 ft 442 kts 221°
2026-05-05 10:15 24.07549 120.00720 39339 ft 444 kts 220°
2026-05-05 10:16 24.04999 119.98769 39487 ft 443 kts 221°
2026-05-05 10:16 24.02482 119.96806 39652 ft 442 kts 221°
2026-05-05 10:16 24.00008 119.94801 39848 ft 443 kts 222°
2026-05-05 10:16 23.97445 119.92831 39924 ft 448 kts 219°
2026-05-05 10:17 23.92256 119.88905 39978 ft 453 kts 220°
2026-05-05 10:17 23.87054 119.84928 39955 ft 456 kts 220°
2026-05-05 10:18 23.81851 119.80939 39936 ft 454 kts 221°
2026-05-05 10:18 23.76685 119.76974 39939 ft 452 kts 221°
2026-05-05 10:19 23.71503 119.73009 39940 ft 454 kts 221°
2026-05-05 10:19 23.66301 119.69049 39951 ft 455 kts 221°
2026-05-05 10:20 23.61105 119.64990 39941 ft 453 kts 224°
2026-05-05 10:20 23.58884 119.62589 39905 ft 444 kts 237°
2026-05-05 10:20 23.57188 119.59803 39962 ft 441 kts 242°
2026-05-05 10:21 23.53914 119.54120 39987 ft 446 kts 241°
2026-05-05 10:21 23.50591 119.48390 39956 ft 446 kts 241°
2026-05-05 10:22 23.47243 119.42638 39948 ft 445 kts 241°
2026-05-05 10:22 23.43903 119.36901 39942 ft 445 kts 241°
2026-05-05 10:23 23.40610 119.31229 39964 ft 446 kts 241°
2026-05-05 10:23 23.37278 119.25514 39953 ft 448 kts 241°
2026-05-05 10:24 23.33921 119.19759 39930 ft 447 kts 241°
2026-05-05 10:24 23.30595 119.14057 39932 ft 447 kts 240°
2026-05-05 10:25 23.27264 119.08357 39936 ft 447 kts 241°
2026-05-05 10:25 23.23917 119.02631 39943 ft 447 kts 241°
2026-05-05 10:26 23.20578 118.96928 39943 ft 447 kts 241°
2026-05-05 10:26 23.17213 118.91194 39940 ft 449 kts 241°
2026-05-05 10:27 23.13822 118.85423 39936 ft 450 kts 241°
2026-05-05 10:27 23.10418 118.79626 39933 ft 449 kts 241°
2026-05-05 10:28 23.07034 118.73872 39933 ft 449 kts 241°
2026-05-05 10:28 23.03664 118.68156 39936 ft 450 kts 241°
2026-05-05 10:29 23.00272 118.62437 39937 ft 450 kts 241°
2026-05-05 10:29 22.96876 118.56625 39933 ft 450 kts 242°
2026-05-05 10:30 22.93511 118.50860 39933 ft 451 kts 240°
2026-05-05 10:30 22.90077 118.45158 39940 ft 451 kts 241°
2026-05-05 10:31 22.86636 118.39401 39935 ft 451 kts 241°
2026-05-05 10:31 22.83214 118.33665 39941 ft 451 kts 240°
2026-05-05 10:32 22.79782 118.27921 39948 ft 452 kts 240°
2026-05-05 10:32 22.76351 118.22177 39938 ft 452 kts 240°
2026-05-05 10:33 22.72937 118.16472 39935 ft 452 kts 240°
2026-05-05 10:33 22.69495 118.10719 39940 ft 452 kts 241°
2026-05-05 10:34 22.66043 118.04987 39940 ft 452 kts 240°
2026-05-05 10:34 22.62603 117.99234 39941 ft 452 kts 241°
2026-05-05 10:35 22.59213 117.93425 39933 ft 452 kts 240°
2026-05-05 10:35 22.55770 117.87722 39936 ft 452 kts 241°
2026-05-05 10:36 22.52325 117.81959 39939 ft 453 kts 241°
2026-05-05 10:36 22.48909 117.76221 39938 ft 453 kts 241°
2026-05-05 10:37 22.45484 117.70468 39935 ft 454 kts 241°
2026-05-05 10:37 22.42032 117.64689 39935 ft 454 kts 241°
2026-05-05 10:38 22.38599 117.58973 39930 ft 454 kts 241°
2026-05-05 10:38 22.35164 117.53176 39929 ft 453 kts 243°
2026-05-05 10:39 22.33823 117.50141 39887 ft 447 kts 254°
2026-05-05 10:39 22.33167 117.46878 39906 ft 444 kts 266°
2026-05-05 10:39 22.33125 117.40197 39961 ft 447 kts 270°
2026-05-05 10:40 22.33019 117.33439 39951 ft 447 kts 269°
2026-05-05 10:40 22.32905 117.26736 39934 ft 445 kts 269°
2026-05-05 10:41 22.32779 117.20076 39930 ft 445 kts 269°
2026-05-05 10:41 22.32654 117.13397 39933 ft 444 kts 269°
2026-05-05 10:42 22.32458 117.03334 39930 ft 445 kts 269°
2026-05-05 10:43 22.32322 116.96623 39934 ft 445 kts 269°
2026-05-05 10:43 22.32181 116.89883 39933 ft 445 kts 269°
2026-05-05 10:44 22.32043 116.83183 39934 ft 445 kts 269°
2026-05-05 10:44 22.31893 116.76476 39935 ft 445 kts 269°
2026-05-05 10:45 22.31748 116.69753 39932 ft 445 kts 269°
2026-05-05 10:45 22.31600 116.63054 39934 ft 445 kts 269°
2026-05-05 10:46 22.31444 116.56303 39932 ft 445 kts 269°
2026-05-05 10:46 22.31294 116.49538 39935 ft 446 kts 270°
2026-05-05 10:47 22.31131 116.42829 39935 ft 445 kts 270°
2026-05-05 10:47 22.30977 116.36154 39933 ft 445 kts 269°
2026-05-05 10:48 22.30811 116.29432 39944 ft 445 kts 269°
2026-05-05 10:48 22.30640 116.22690 39936 ft 445 kts 269°
2026-05-05 10:49 22.30473 116.15998 39932 ft 446 kts 269°
2026-05-05 10:49 22.30304 116.09286 39932 ft 445 kts 269°
2026-05-05 10:50 22.30127 116.02611 39929 ft 445 kts 269°
2026-05-05 10:50 22.29949 115.95869 39932 ft 446 kts 269°
2026-05-05 10:51 22.29768 115.89181 39933 ft 446 kts 270°
2026-05-05 10:51 22.29599 115.82463 39932 ft 446 kts 270°
2026-05-05 10:52 22.29422 115.75792 39929 ft 445 kts 270°
2026-05-05 10:52 22.29246 115.69099 39930 ft 445 kts 270°
2026-05-05 10:53 22.29059 115.62502 39306 ft 434 kts 270°
2026-05-05 10:53 22.28978 115.59270 38499 ft 423 kts 269°
2026-05-05 10:53 22.28894 115.56165 37766 ft 411 kts 269°
2026-05-05 10:53 22.28816 115.53155 37025 ft 400 kts 269°
2026-05-05 10:54 22.28729 115.50137 36232 ft 412 kts 269°
2026-05-05 10:54 22.28643 115.47009 35475 ft 415 kts 269°
2026-05-05 10:54 22.28556 115.43923 34796 ft 416 kts 269°
2026-05-05 10:54 22.28468 115.40822 34152 ft 416 kts 269°
2026-05-05 10:55 22.28385 115.37727 33521 ft 416 kts 269°
2026-05-05 10:55 22.28291 115.34605 32864 ft 415 kts 268°
2026-05-05 10:55 22.28196 115.31522 32184 ft 407 kts 268°
2026-05-05 10:55 22.28107 115.28515 31424 ft 396 kts 269°
2026-05-05 10:56 22.28010 115.25615 30673 ft 385 kts 269°
2026-05-05 10:56 22.27922 115.22745 29886 ft 375 kts 269°
2026-05-05 10:56 22.27833 115.19991 29115 ft 367 kts 269°
2026-05-05 10:56 22.27749 115.17265 28348 ft 361 kts 269°
2026-05-05 10:57 22.27658 115.14565 27630 ft 367 kts 269°
2026-05-05 10:57 22.27580 115.11838 26899 ft 365 kts 269°
2026-05-05 10:57 22.27498 115.09090 26151 ft 361 kts 269°
2026-05-05 10:57 22.27407 115.06396 25422 ft 366 kts 268°
2026-05-05 10:58 22.27324 115.03682 24697 ft 361 kts 269°
2026-05-05 10:58 22.27235 115.00999 23931 ft 353 kts 268°
2026-05-05 10:58 22.27154 114.98375 23179 ft 346 kts 269°
2026-05-05 10:58 22.27079 114.95835 22465 ft 344 kts 268°
2026-05-05 10:59 22.26997 114.93239 21804 ft 348 kts 269°
2026-05-05 10:59 22.26919 114.90642 21121 ft 342 kts 268°
2026-05-05 10:59 22.26833 114.88116 20426 ft 336 kts 268°
2026-05-05 10:59 22.26749 114.85590 19747 ft 342 kts 268°
2026-05-05 11:00 22.26664 114.83039 19060 ft 336 kts 268°
2026-05-05 11:00 22.26523 114.80572 18338 ft 331 kts 261°
2026-05-05 11:00 22.25833 114.78256 17614 ft 328 kts 245°
2026-05-05 11:00 22.24502 114.76264 16912 ft 327 kts 229°
2026-05-05 11:01 22.22862 114.74580 16246 ft 322 kts 227°
2026-05-05 11:01 22.21264 114.72914 15568 ft 321 kts 228°
2026-05-05 11:01 22.19645 114.71217 14923 ft 325 kts 227°
2026-05-05 11:01 22.18022 114.69534 14265 ft 320 kts 227°
2026-05-05 11:02 22.16451 114.67899 13607 ft 315 kts 227°
2026-05-05 11:02 22.14874 114.66273 12945 ft 310 kts 227°
2026-05-05 11:02 22.13332 114.64681 12300 ft 305 kts 227°
2026-05-05 11:02 22.11777 114.63084 11691 ft 308 kts 227°
2026-05-05 11:03 22.10244 114.61507 11090 ft 302 kts 226°
2026-05-05 11:03 22.08751 114.59969 10523 ft 296 kts 226°
2026-05-05 11:03 22.07284 114.58457 10170 ft 282 kts 226°
2026-05-05 11:03 22.05912 114.57046 9950 ft 266 kts 226°
2026-05-05 11:04 22.04587 114.55673 9543 ft 261 kts 227°
2026-05-05 11:04 22.03283 114.54316 9220 ft 261 kts 227°
2026-05-05 11:04 22.02115 114.52832 9056 ft 259 kts 243°
2026-05-05 11:04 22.01392 114.51049 9015 ft 261 kts 250°
2026-05-05 11:05 22.00724 114.49228 8976 ft 262 kts 249°
2026-05-05 11:05 22.00021 114.47409 8952 ft 261 kts 249°
2026-05-05 11:05 21.99330 114.45599 8936 ft 261 kts 249°
2026-05-05 11:05 21.98631 114.43773 8935 ft 261 kts 249°
2026-05-05 11:06 21.97941 114.41978 8941 ft 261 kts 249°
2026-05-05 11:06 21.97247 114.40168 8945 ft 262 kts 249°
2026-05-05 11:06 21.96547 114.38342 8953 ft 262 kts 249°
2026-05-05 11:06 21.95854 114.36537 8953 ft 262 kts 249°
2026-05-05 11:07 21.95154 114.34708 8951 ft 262 kts 248°
2026-05-05 11:07 21.94457 114.32906 8951 ft 262 kts 248°
2026-05-05 11:07 21.93756 114.31080 8954 ft 262 kts 248°
2026-05-05 11:07 21.93058 114.29269 8951 ft 262 kts 248°
2026-05-05 11:08 21.92356 114.27439 8945 ft 262 kts 248°
2026-05-05 11:08 21.91662 114.25633 8942 ft 263 kts 248°
2026-05-05 11:08 21.90967 114.23816 8945 ft 263 kts 248°
2026-05-05 11:08 21.90269 114.21988 8949 ft 263 kts 249°
2026-05-05 11:09 21.89749 114.20091 8810 ft 266 kts 264°
2026-05-05 11:09 21.89881 114.18126 8592 ft 266 kts 284°
2026-05-05 11:09 21.90653 114.16316 8380 ft 266 kts 298°
2026-05-05 11:09 21.91604 114.14604 8160 ft 265 kts 297°
2026-05-05 11:10 21.92504 114.12878 7946 ft 265 kts 297°
2026-05-05 11:10 21.93415 114.11139 7726 ft 265 kts 297°
2026-05-05 11:10 21.94311 114.09418 7507 ft 265 kts 297°
2026-05-05 11:10 21.95221 114.07672 7287 ft 265 kts 297°
2026-05-05 11:11 21.96103 114.05967 7094 ft 263 kts 297°
2026-05-05 11:11 21.96998 114.04237 6896 ft 263 kts 297°
2026-05-05 11:11 21.97890 114.02514 6695 ft 264 kts 297°
2026-05-05 11:11 21.98777 114.00796 6495 ft 264 kts 297°
2026-05-05 11:12 21.99674 113.99062 6289 ft 263 kts 297°
2026-05-05 11:12 22.00562 113.97337 6086 ft 263 kts 297°
2026-05-05 11:12 22.01437 113.95649 5869 ft 251 kts 297°
2026-05-05 11:12 22.02265 113.94041 5680 ft 236 kts 297°
2026-05-05 11:13 22.03032 113.92548 5531 ft 221 kts 297°
2026-05-05 11:13 22.03781 113.91103 5415 ft 222 kts 297°
2026-05-05 11:13 22.04535 113.89635 5301 ft 227 kts 297°
2026-05-05 11:13 22.05307 113.88132 5168 ft 228 kts 297°
2026-05-05 11:14 22.06069 113.86654 5068 ft 228 kts 297°
2026-05-05 11:14 22.06839 113.85150 5019 ft 228 kts 297°
2026-05-05 11:14 22.07600 113.83666 4995 ft 228 kts 297°
2026-05-05 11:14 22.08369 113.82164 4982 ft 228 kts 297°
2026-05-05 11:15 22.09136 113.80677 4969 ft 228 kts 297°
2026-05-05 11:15 22.09906 113.79178 4956 ft 229 kts 300°
2026-05-05 11:15 22.10991 113.77904 4939 ft 231 kts 326°
2026-05-05 11:15 22.12474 113.77238 4940 ft 233 kts 351°
2026-05-05 11:16 22.14106 113.77092 4858 ft 237 kts 357°
2026-05-05 11:16 22.15751 113.76972 4730 ft 235 kts 354°
2026-05-05 11:16 22.17374 113.76818 4586 ft 234 kts 355°
2026-05-05 11:16 22.19050 113.76659 4127 ft 242 kts 355°
2026-05-05 11:17 22.20681 113.76499 3834 ft 227 kts 356°
2026-05-05 11:17 22.22244 113.76354 3335 ft 223 kts 356°
2026-05-05 11:17 22.23765 113.76270 2890 ft 215 kts
2026-05-05 11:17 22.25104 113.76759 2597 ft 197 kts 36°
2026-05-05 11:18 22.25998 113.77805 2307 ft 183 kts 66°
2026-05-05 11:18 22.26307 113.79064 2122 ft 162 kts 83°
2026-05-05 11:18 22.26520 113.80190 1959 ft 150 kts 75°
2026-05-05 11:18 22.26846 113.81225 1747 ft 143 kts 72°
2026-05-05 11:19 22.27139 113.82180 1560 ft 140 kts 73°
2026-05-05 11:19 22.27428 113.83092 1384 ft 139 kts 71°
2026-05-05 11:19 22.27927 113.84617 1106 ft 142 kts 72°
2026-05-05 11:20 22.28231 113.85585 932 ft 144 kts 70°